[Date Prev][Date Next][Thread Prev][Thread Next] - [Date Index][Thread Index][Author Index]

2 Line ISS Keps 2-3



ISS
1 25544U 98067A   04034.30185185  .00016683  00000-0  15994-3 0  1191
2 25544  51.6307 292.3698 0007727 122.6285  15.7556 15.66759132297150





----
Via the sarex mailing list at AMSAT.ORG courtesy of AMSAT-NA.
To unsubscribe, send "unsubscribe sarex" to Majordomo@amsat.org



AMSAT Top AMSAT Home